DW2070 Weather Reports


time (UTC)temp
C
wind
direction
speed
KPH
gust
KPH
rain 1hr
cm
rain 24hr
cm
rain mn
cm
humidity
%
barometer
mb
20260507095003 12 0 0.0 0.0 0.00 0.00 0.00 86 1016.9
20260507094003 12 0 0.0 0.0 0.00 0.00 0.00 86 1016.9
20260507093003 12 0 0.0 0.0 0.00 0.00 0.00 86 1017.0
20260507092003 12 0 0.0 0.0 0.00 0.00 0.00 86 1017.0
20260507091003 12 0 0.0 0.0 0.00 0.00 0.00 86 1017.1
20260507090004 12 0 0.0 0.0 0.00 0.00 0.00 87 1017.2
20260507085003 12 0 0.0 0.0 0.00 0.00 0.00 87 1017.3
20260507084003 12 0 0.0 0.0 0.00 0.00 0.00 87 1017.4
20260507083004 12 0 0.0 0.0 0.00 0.00 0.00 87 1017.4
20260507081004 12 0 0.0 0.0 0.00 0.00 0.00 87 1017.3
20260507080005 13 0 0.0 0.0 0.00 0.00 0.00 87 1017.4
20260507075004 13 0 0.0 0.0 0.00 0.00 0.00 86 1017.4
20260507074004 13 0 0.0 0.0 0.00 0.00 0.00 86 1017.4
20260507073004 13 0 1.6 0.0 0.00 0.00 0.00 86 1017.5
20260507072005 13 229 1.6 4.8 0.00 0.00 0.00 86 1017.5
20260507071005 13 0 0.0 4.8 0.00 0.00 0.00 86 1017.7
20260507070009 13 0 0.0 0.0 0.00 0.00 0.00 85 1017.6
20260507065004 13 0 0.0 0.0 0.00 0.00 0.00 85 1017.7
20260507064004 13 0 0.0 0.0 0.00 0.00 0.00 85 1017.7
20260507063004 13 0 0.0 0.0 0.00 0.00 0.00 85 1017.8
20260507062025 14 0 0.0 0.0 0.00 0.00 0.00 85 1017.8
20260507061004 14 0 0.0 0.0 0.00 0.00 0.00 85 1017.8
20260507060004 14 224 1.6 3.2 0.00 0.00 0.00 85 1017.9
20260507055004 14 224 1.6 6.4 0.00 0.00 0.00 85 1018.0
20260507054004 14 223 1.6 4.8 0.00 0.00 0.00 84 1017.9
20260507053005 14 223 1.6 3.2 0.00 0.00 0.00 84 1017.8
20260507052004 14 223 1.6 4.8 0.00 0.00 0.00 84 1017.8
20260507051004 15 223 0.0 4.8 0.00 0.00 0.00 83 1017.9
20260507050025 15 224 1.6 4.8 0.00 0.00 0.00 83 1017.7
20260507045004 15 225 1.6 4.8 0.00 0.00 0.00 82 1017.7
20260507044004 15 225 1.6 4.8 0.00 0.00 0.00 82 1017.6
20260507043025 15 225 3.2 6.4 0.00 0.00 0.00 82 1017.6
20260507042004 15 223 1.6 8.0 0.00 0.00 0.00 81 1017.6
20260507041004 15 220 1.6 6.4 0.00 0.00 0.00 80 1017.5
20260507040004 16 220 3.2 6.4 0.00 0.00 0.00 80 1017.4
20260507035004 16 220 3.2 4.8 0.00 0.00 0.00 79 1017.3
20260507034004 16 216 3.2 8.0 0.00 0.00 0.00 79 1017.0
20260507033004 16 209 3.2 6.4 0.00 0.00 0.00 78 1017.0
20260507032004 16 225 1.6 6.4 0.00 0.00 0.00 77 1016.8
20260507031004 16 231 1.6 6.4 0.00 0.00 0.00 76 1016.7
20260507030004 16 238 3.2 6.4 0.00 0.00 0.00 75 1016.6
20260507025004 17 247 3.2 8.0 0.00 0.00 0.00 74 1016.5
20260507024004 17 221 4.8 12.9 0.00 0.00 0.00 74 1016.5
20260507023004 17 197 4.8 11.3 0.00 0.00 0.00 73 1016.4
20260507022004 17 208 4.8 12.9 0.00 0.00 0.00 72 1016.5
20260507021025 18 213 6.4 12.9 0.00 0.00 0.00 71 1016.4
20260507020004 18 219 6.4 16.1 0.00 0.00 0.00 69 1016.4
20260507015004 18 214 6.4 12.9 0.00 0.00 0.00 67 1016.3
20260507014004 19 219 6.4 16.1 0.00 0.00 0.00 66 1016.3
20260507013004 20 239 6.4 12.9 0.00 0.00 0.00 62 1016.2
20260507012004 20 251 6.4 14.5 0.00 0.00 0.00 60 1016.3
20260507011004 21 233 6.4 14.5 0.00 0.00 0.00 59 1016.4
20260507010004 21 235 6.4 14.5 0.00 0.00 0.00 58 1016.4
20260507005004 21 246 8.0 14.5 0.00 0.00 0.00 57 1016.3
20260507004004 21 241 6.4 19.3 0.00 0.00 0.00 56 1016.4
20260507003004 22 239 6.4 16.1 0.00 0.00 0.00 55 1016.3
20260507002004 22 247 8.0 16.1 0.00 0.00 0.00 54 1016.3
20260507001004 21 238 8.0 14.5 0.00 0.00 0.00 55 1016.3
20260507000004 22 242 8.0 20.9 0.00 0.00 0.00 54 1016.3
20260506235004 22 253 9.7 19.3 0.00 0.00 0.00 55 1016.3
20260506234004 22 246 8.0 22.5 0.00 0.00 0.00 55 1016.2
20260506233004 21 238 9.7 19.3 0.00 0.00 0.00 56 1016.3
20260506232004 22 237 8.0 22.5 0.00 0.00 0.00 54 1016.3
20260506231004 22 250 8.0 20.9 0.00 0.00 0.00 54 1016.5
20260506230004 22 242 8.0 19.3 0.00 0.00 0.00 55 1016.6
20260506225004 22 260 8.0 20.9 0.00 0.00 0.00 56 1016.7
20260506224025 22 255 9.7 22.5 0.00 0.00 0.00 56 1016.8
20260506223004 22 240 9.7 22.5 0.00 0.00 0.00 56 1016.9
20260506222004 22 238 9.7 20.9 0.00 0.00 0.00 56 1017.1
20260506221025 22 244 8.0 20.9 0.00 0.00 0.00 55 1017.3
20260506220004 22 243 9.7 19.3 0.00 0.00 0.00 57 1017.6
20260506215004 22 237 9.7 20.9 0.00 0.00 0.00 57 1017.6
20260506214004 22 233 9.7 27.4 0.00 0.00 0.00 58 1017.7
20260506213004 22 234 9.7 25.7 0.00 0.00 0.00 57 1017.7
20260506212004 22 239 9.7 19.3 0.00 0.00 0.00 56 1017.9
20260506211004 22 253 9.7 20.9 0.00 0.00 0.00 56 1017.8
20260506210025 22 246 9.7 22.5 0.00 0.00 0.00 56 1017.9
20260506205025 22 256 9.7 19.3 0.00 0.00 0.00 58 1018.0
20260506204004 22 249 8.0 22.5 0.00 0.00 0.00 57 1018.0
20260506203004 22 265 8.0 17.7 0.00 0.00 0.00 58 1018.1
20260506202004 21 258 9.7 20.9 0.00 0.00 0.00 60 1018.2
20260506201004 21 252 9.7 24.1 0.00 0.00 0.00 61 1018.2
20260506200025 21 252 8.0 22.5 0.00 0.00 0.00 61 1018.3
20260506194004 21 259 9.7 22.5 0.00 0.00 0.00 62 1018.3
20260506193004 21 269 9.7 22.5 0.00 0.00 0.00 63 1018.2
20260506192004 21 257 8.0 19.3 0.00 0.00 0.00 62 1018.3
20260506191004 21 268 8.0 17.7 0.00 0.00 0.00 61 1018.4
20260506190004 21 257 6.4 22.5 0.00 0.00 0.00 60 1018.6
20260506185004 21 236 6.4 11.3 0.00 0.00 0.00 61 1018.6
20260506184004 21 258 8.0 19.3 0.00 0.00 0.00 61 1018.7
20260506183005 21 247 6.4 14.5 0.00 0.00 0.00 59 1018.7
20260506182003 21 253 6.4 14.5 0.00 0.00 0.00 60 1018.7
20260506181003 21 244 8.0 16.1 0.00 0.00 0.00 57 1018.7
20260506180024 21 238 6.4 14.5 0.00 0.00 0.00 56 1018.7
20260506175003 21 245 6.4 16.1 0.00 0.00 0.00 55 1018.7
20260506173004 21 284 3.2 11.3 0.00 0.00 0.00 58 1018.7
20260506172004 21 269 4.8 9.7 0.00 0.00 0.00 56 1018.6
20260506171004 20 264 4.8 12.9 0.00 0.00 0.00 59 1018.7
20260506170003 20 282 4.8 12.9 0.00 0.00 0.00 59 1018.7
20260506165024 20 277 4.8 12.9 0.00 0.00 0.00 61 1018.8
20260506164004 20 231 4.8 11.3 0.00 0.00 0.00 60 1018.8
20260506163004 20 263 3.2 12.9 0.00 0.00 0.00 61 1018.8
20260506162003 20 287 3.2 11.3 0.00 0.00 0.00 61 1018.8
20260506161004 19 259 3.2 8.0 0.00 0.00 0.00 63 1018.6
20260506160004 18 154 1.6 9.7 0.00 0.00 0.00 63 1018.6
20260506155004 18 83 1.6 4.8 0.00 0.00 0.00 64 1018.6
20260506154003 17 83 1.6 4.8 0.00 0.00 0.00 68 1018.6
20260506153004 15 83 3.2 4.8 0.00 0.00 0.00 76 1018.6
20260506152003 13 83 3.2 6.4 0.00 0.00 0.00 80 1018.7
20260506151003 13 83 4.8 9.7 0.00 0.00 0.00 80 1018.6
20260506150004 12 74 6.4 14.5 0.00 0.00 0.00 81 1018.6
20260506145003 12 72 6.4 11.3 0.00 0.00 0.00 82 1018.7
20260506143003 11 73 4.8 11.3 0.00 0.00 0.00 84 1018.5
20260506142003 11 70 4.8 9.7 0.00 0.00 0.00 85 1018.4
20260506141004 10 71 4.8 9.7 0.00 0.00 0.00 85 1018.4
20260506140003 10 75 4.8 9.7 0.00 0.00 0.00 86 1018.3
20260506135024 10 79 3.2 9.7 0.00 0.00 0.00 86 1018.4
20260506134003 10 81 4.8 8.0 0.00 0.00 0.00 86 1018.3
20260506133003 10 81 3.2 6.4 0.00 0.00 0.00 86 1018.4
20260506132024 10 81 4.8 6.4 0.00 0.00 0.00 85 1018.4
20260506131003 10 81 4.8 9.7 0.00 0.00 0.00 85 1018.3
20260506130004 10 75 4.8 9.7 0.00 0.00 0.00 85 1018.1
20260506125003 10 70 4.8 9.7 0.00 0.00 0.00 85 1017.9
20260506124004 10 72 6.4 12.9 0.00 0.00 0.00 85 1017.8
20260506123003 10 70 6.4 14.5 0.00 0.00 0.00 86 1017.8
20260506122003 10 73 6.4 14.5 0.00 0.00 0.00 85 1017.6
20260506121003 10 67 6.4 14.5 0.00 0.00 0.00 85 1017.5
20260506120004 10 68 6.4 11.3 0.00 0.00 0.00 85 1017.5
20260506115003 10 70 6.4 11.3 0.00 0.00 0.00 85 1017.4
20260506114003 10 66 4.8 11.3 0.00 0.00 0.00 85 1017.6
20260506113024 10 62 6.4 12.9 0.00 0.00 0.00 85 1017.5
20260506112003 10 64 8.0 12.9 0.00 0.00 0.00 85 1017.6
20260506111003 10 67 8.0 17.7 0.00 0.00 0.00 86 1017.5
20260506110003 10 69 6.4 14.5 0.00 0.00 0.00 86 1017.5
20260506105024 10 67 6.4 14.5 0.00 0.00 0.00 86 1017.6
20260506104024 11 70 4.8 9.7 0.00 0.00 0.00 86 1017.5
20260506103025 11 72 4.8 12.9 0.00 0.00 0.00 86 1017.3
20260506102003 11 71 4.8 9.7 0.00 0.00 0.00 86 1017.4
20260506101003 11 70 4.8 9.7 0.00 0.00 0.00 85 1017.4
20260506100003 11 72 4.8 9.7 0.00 0.00 0.00 86 1017.4